{"data":{"norad_id":57230,"intl_designator":"2023-094N","name":"STARLINK-6250","alt_names":[],"object_type":"PAYLOAD","status":"ACTIVE","operator":null,"country":"US","launch_date":"2023-07-07","launch_site_code":"AFWTR","launch_vehicle":null,"mission":null,"orbit_class":"UNKNOWN","rcs_meters":null,"size_class":null,"mass_kg":null,"dimensions":null,"purposes":["comms"],"wikipedia_slug":null,"has_3d_model":false,"image_url":null,"decayed_at":null,"tle_current":{"epoch":"2026-09-20T08:32:49.611264Z","epoch_age_seconds":138297,"freshness":"FRESH","line1":"1 57230U 23094N   26263.35612976 -.00000487  00000+0 -81652-5 0  9990","line2":"2 57230  43.0042  11.6502 0001343 276.4441  83.6258 15.27571065176887","mean_motion":15.27571065,"eccentricity":0.0001343,"inclination_deg":43.0042,"raan_deg":11.6502,"arg_perigee_deg":276.4441,"mean_anomaly_deg":83.6258,"bstar":-8.1652e-6,"rev_number":17688,"period_min":94.26730009448,"perigee_km":482.15438988855,"apogee_km":483.99731166027,"semimajor_km":6861.2128507744,"source":"CELESTRAK","updated_at":"2026-09-21T09:00:33.586152Z"}}}